DW6399 Weather Reports


time (UTC)temp
C
wind
direction
speed
KPH
gust
KPH
rain 1hr
cm
rain 24hr
cm
rain mn
cm
humidity
%
barometer
mb
20260903121825 17 140 9.7 17.7 0.00 0.00 0.00 75 999.4
20260903120904 17 145 9.7 17.7 0.00 0.00 0.00 76 999.6
20260903120004 17 169 6.4 14.5 0.00 0.00 0.00 77 999.7
20260903115404 16 161 6.4 17.7 0.00 0.00 0.00 78 999.7
20260903114504 16 157 9.7 19.3 0.00 0.00 0.00 77 999.8
20260903113604 16 164 8.0 16.1 0.00 0.00 0.00 80 999.8
20260903112704 16 157 9.7 17.7 0.00 0.00 0.00 81 999.9
20260903111804 16 160 9.7 24.1 0.00 0.00 0.00 81 999.9
20260903110904 16 164 11.3 19.3 0.00 0.00 0.00 82 999.9
20260903110004 15 167 9.7 17.7 0.00 0.00 0.00 83 1000.0
20260903105404 15 167 9.7 17.7 0.00 0.00 0.00 82 1000.0
20260903104524 15 171 9.7 19.3 0.00 0.00 0.00 82 1000.0
20260903103604 15 167 9.7 22.5 0.00 0.00 0.00 82 1000.1
20260903102725 15 166 11.3 20.9 0.00 0.00 0.00 83 1000.1
20260903101804 15 164 11.3 24.1 0.00 0.00 0.00 84 1000.2
20260903100925 15 169 9.7 24.1 0.00 0.00 0.00 85 1000.1
20260903100004 15 185 8.0 19.3 0.00 0.00 0.00 84 1000.1
20260903095404 15 175 9.7 19.3 0.00 0.00 0.00 84 1000.2
20260903094504 16 175 8.0 19.3 0.00 0.00 0.00 84 1000.1
20260903093604 16 168 11.3 22.5 0.00 0.00 0.00 83 1000.0
20260903092704 16 174 8.0 17.7 0.00 0.00 0.00 83 1000.0
20260903091804 16 167 6.4 17.7 0.00 0.00 0.00 84 1000.0
20260903090904 16 168 6.4 14.5 0.00 0.00 0.00 84 1000.0
20260903090004 16 170 8.0 14.5 0.00 0.00 0.00 85 1000.0
20260903085403 16 161 9.7 16.1 0.00 0.00 0.00 85 1000.1
20260903084525 16 166 9.7 17.7 0.00 0.00 0.00 85 1000.1
20260903083604 15 166 8.0 14.5 0.00 0.00 0.00 86 1000.1
20260903082704 15 166 11.3 20.9 0.00 0.00 0.00 85 1000.2
20260903081804 15 162 9.7 22.5 0.00 0.00 0.00 86 1000.2
20260903080903 15 160 9.7 14.5 0.00 0.00 0.00 87 1000.2
20260903080025 15 164 9.7 17.7 0.00 0.00 0.00 87 1000.2
20260903075403 15 157 11.3 20.9 0.00 0.00 0.00 88 1000.2
20260903074504 15 157 9.7 19.3 0.00 0.00 0.00 89 1000.2
20260903073604 15 163 9.7 19.3 0.00 0.00 0.00 90 1000.3
20260903072703 15 156 9.7 17.7 0.00 0.00 0.00 93 1000.3
20260903071803 14 162 8.0 17.7 0.00 0.00 0.00 97 1000.4
20260903070904 13 159 4.8 12.9 0.00 0.00 0.00 97 1000.4
20260903070004 13 165 6.4 14.5 0.00 0.00 0.00 97 1000.4
20260903065404 12 155 6.4 14.5 0.00 0.00 0.00 97 1000.5
20260903064503 12 127 4.8 9.7 0.00 0.00 0.00 97 1000.4
20260903063604 12 133 4.8 9.7 0.00 0.00 0.00 97 1000.3
20260903062703 11 116 3.2 6.4 0.00 0.00 0.00 97 1000.4
20260903061804 11 127 3.2 8.0 0.00 0.00 0.00 97 1000.4
20260903060904 10 134 3.2 6.4 0.00 0.00 0.00 97 1000.5
20260903060004 10 134 3.2 6.4 0.00 0.00 0.00 97 1000.5
20260903055403 10 154 3.2 6.4 0.00 0.00 0.00 96 1000.6
20260903054525 9 139 3.2 8.0 0.00 0.00 0.00 96 1000.7
20260903053625 8 125 1.6 4.8 0.00 0.00 0.00 97 1000.6
20260903052704 8 125 1.6 4.8 0.00 0.00 0.00 96 1000.7
20260903051804 7 125 1.6 4.8 0.00 0.00 0.00 96 1000.7
20260903050903 7 123 1.6 4.8 0.00 0.00 0.00 96 1000.8
20260903050004 7 278 0.0 4.8 0.00 0.00 0.00 96 1000.6
20260903045404 7 0 0.0 0.0 0.00 0.00 0.00 96 1000.7
20260903044504 6 0 0.0 0.0 0.00 0.00 0.00 96 1000.7
20260903043624 6 278 0.0 3.2 0.00 0.00 0.00 96 1000.8
20260903042725 6 0 0.0 0.0 0.00 0.00 0.00 95 1000.8
20260903041803 6 278 0.0 3.2 0.00 0.00 0.00 95 1000.9
20260903040904 6 0 0.0 0.0 0.00 0.00 0.00 95 1000.9
20260903040025 6 0 0.0 0.0 0.00 0.00 0.00 95 1000.9
20260903035403 7 0 0.0 0.0 0.00 0.00 0.00 96 1000.9
20260903034525 7 0 0.0 0.0 0.00 0.00 0.00 95 1001.0
20260903033603 7 0 0.0 0.0 0.00 0.00 0.00 96 1001.0
20260903032703 7 0 0.0 0.0 0.00 0.00 0.00 96 1001.1
20260903031803 7 278 0.0 3.2 0.00 0.00 0.00 96 1001.0
20260903030903 7 0 0.0 0.0 0.00 0.00 0.00 96 1001.1
20260903030025 7 278 0.0 1.6 0.00 0.00 0.00 96 1001.1
20260903025403 7 0 0.0 0.0 0.00 0.00 0.00 95 1001.1
20260903024503 7 278 0.0 1.6 0.00 0.00 0.00 95 1001.1
20260903023603 7 278 0.0 3.2 0.00 0.00 0.00 95 1001.2
20260903022704 7 0 0.0 0.0 0.00 0.00 0.00 95 1001.3
20260903021803 7 0 0.0 0.0 0.00 0.00 0.00 95 1001.4
20260903020904 7 278 0.0 3.2 0.00 0.00 0.00 95 1001.4
20260903020025 7 0 0.0 0.0 0.00 0.00 0.00 96 1001.3
20260903015404 7 0 0.0 0.0 0.00 0.00 0.00 96 1001.3
20260903014503 7 0 0.0 0.0 0.00 0.00 0.00 96 1001.4
20260903013603 7 278 0.0 3.2 0.00 0.00 0.00 96 1001.4
20260903012703 7 278 1.6 3.2 0.00 0.00 0.00 96 1001.3
20260903011804 7 0 0.0 0.0 0.00 0.00 0.00 96 1001.4
20260903010904 7 0 0.0 0.0 0.00 0.00 0.00 96 1001.5
20260903010025 7 0 0.0 0.0 0.00 0.00 0.00 95 1001.5
20260903005425 7 278 0.0 4.8 0.00 0.00 0.00 95 1001.6
20260903004504 7 278 1.6 4.8 0.00 0.00 0.00 96 1001.5
20260903003603 7 0 0.0 0.0 0.00 0.00 0.00 95 1001.6
20260903002704 6 0 0.0 0.0 0.00 0.00 0.00 95 1001.6
20260903001824 6 0 0.0 0.0 0.00 0.00 0.00 95 1001.7
20260903000904 6 0 0.0 0.0 0.00 0.00 0.00 95 1001.7
20260903000004 6 0 0.0 0.0 0.00 0.00 0.00 95 1001.7
20260902235403 6 0 0.0 0.0 0.00 0.00 0.00 95 1001.7
20260902234504 6 0 0.0 0.0 0.00 0.00 0.00 95 1001.8
20260902233603 6 0 0.0 0.0 0.00 0.00 0.00 95 1001.7
20260902232704 6 0 0.0 0.0 0.00 0.00 0.00 95 1001.8
20260902231804 6 0 0.0 0.0 0.00 0.00 0.00 95 1001.8
20260902230904 6 0 0.0 0.0 0.00 0.00 0.00 95 1001.8
20260902230004 6 0 0.0 0.0 0.00 0.00 0.00 95 1001.9
20260902225425 6 0 0.0 0.0 0.00 0.00 0.00 95 1002.0
20260902224504 6 0 0.0 0.0 0.00 0.00 0.00 94 1002.0
20260902223603 6 0 0.0 0.0 0.00 0.00 0.00 95 1001.9
20260902222704 6 0 0.0 0.0 0.00 0.00 0.00 94 1002.0
20260902221804 6 0 0.0 0.0 0.00 0.00 0.00 95 1002.0
20260902220904 6 0 0.0 0.0 0.00 0.00 0.00 94 1002.1
20260902220003 6 0 0.0 0.0 0.00 0.00 0.00 94 1002.2
20260902215424 6 0 0.0 0.0 0.00 0.00 0.00 95 1002.2
20260902214503 6 0 0.0 0.0 0.00 0.00 0.00 94 1002.3
20260902213603 6 0 0.0 0.0 0.00 0.03 0.00 94 1002.3
20260902212703 6 0 0.0 0.0 0.00 0.03 0.00 94 1002.3
20260902211803 6 278 0.0 1.6 0.00 0.03 0.00 94 1002.4
20260902210903 6 278 0.0 1.6 0.00 0.03 0.00 94 1002.4
20260902210026 6 278 0.0 1.6 0.00 0.03 0.00 94 1002.5
20260902205404 6 0 0.0 0.0 0.00 0.03 0.03 94 1002.5
20260902204503 6 278 0.0 1.6 0.00 0.03 0.03 93 1002.6
20260902203625 6 278 0.0 1.6 0.00 0.03 0.03 93 1002.6
20260902202703 6 278 0.0 1.6 0.00 0.03 0.03 93 1002.6
20260902201803 6 278 0.0 1.6 0.00 0.03 0.03 94 1002.7
20260902200924 6 278 1.6 3.2 0.00 0.03 0.03 93 1002.7
20260902200003 6 278 1.6 3.2 0.00 0.03 0.03 93 1002.6
20260902195403 6 278 1.6 3.2 0.00 0.03 0.03 93 1002.7
20260902194503 6 278 1.6 3.2 0.00 0.03 0.03 93 1002.7
20260902193603 7 278 1.6 4.8 0.00 0.03 0.03 93 1002.6
20260902192704 6 0 0.0 0.0 0.00 0.03 0.03 92 1002.6
20260902191803 7 0 0.0 0.0 0.00 0.03 0.03 92 1002.5
20260902190903 7 0 0.0 0.0 0.00 0.03 0.03 92 1002.5
20260902190004 7 0 0.0 0.0 0.00 0.03 0.03 91 1002.5
20260902185424 7 0 0.0 0.0 0.00 0.03 0.03 91 1002.5
20260902184504 7 278 0.0 1.6 0.00 0.03 0.03 91 1002.5
20260902183603 8 278 0.0 3.2 0.00 0.03 0.03 91 1002.5
20260902182703 8 278 1.6 3.2 0.00 0.03 0.03 91 1002.5
20260902181825 8 278 4.8 4.8 0.00 0.03 0.03 91 1002.6
20260902180903 8 278 4.8 6.4 0.00 0.03 0.03 91 1002.6
20260902180006 8 278 3.2 4.8 0.00 0.03 0.03 90 1002.7
20260902175403 9 278 3.2 4.8 0.00 0.03 0.03 90 1002.8
20260902174503 9 278 3.2 4.8 0.00 0.03 0.03 90 1002.7
20260902173603 10 278 3.2 4.8 0.00 0.03 0.03 89 1002.8
20260902172703 10 278 3.2 4.8 0.00 0.03 0.03 88 1002.8
20260902171803 10 278 3.2 4.8 0.00 0.03 0.03 87 1002.8
20260902170903 11 278 3.2 4.8 0.00 0.03 0.03 87 1002.9
20260902170003 11 278 3.2 4.8 0.00 0.03 0.03 85 1002.8
20260902165403 12 278 3.2 4.8 0.00 0.03 0.03 84 1002.8
20260902164503 13 276 3.2 4.8 0.00 0.03 0.03 80 1002.9
20260902163603 14 271 3.2 6.4 0.00 0.03 0.03 77 1002.8
20260902162703 15 282 3.2 9.7 0.00 0.03 0.03 74 1002.8
20260902161803 15 284 3.2 6.4 0.00 0.03 0.03 75 1002.8
20260902160903 16 286 4.8 9.7 0.00 0.03 0.03 70 1002.8
20260902160005 16 284 6.4 11.3 0.00 0.03 0.03 69 1002.9
20260902155403 16 283 6.4 14.5 0.00 0.03 0.03 69 1002.9
20260902154503 16 274 4.8 14.5 0.00 0.08 0.03 68 1002.8
20260902153624 16 279 3.2 6.4 0.00 0.46 0.03 69 1002.9
20260902152703 16 266 4.8 14.5 0.00 0.46 0.03 69 1002.9
20260902151803 16 281 6.4 16.1 0.00 0.46 0.03 68 1002.9
20260902150903 16 280 6.4 14.5 0.00 0.46 0.03 67 1002.8
20260902150003 16 281 4.8 14.5 0.00 0.46 0.03 69 1002.8
20260902145403 17 273 4.8 12.9 0.00 0.46 0.03 68 1002.9
20260902144503 17 283 8.0 14.5 0.00 0.46 0.03 68 1002.8
20260902143624 17 290 6.4 16.1 0.00 0.46 0.03 69 1002.9
20260902142705 17 284 8.0 16.1 0.00 0.46 0.03 68 1002.8
20260902141803 17 270 4.8 17.7 0.00 0.46 0.03 68 1002.8
20260902140903 17 277 4.8 16.1 0.00 0.46 0.03 69 1002.8
20260902140004 17 266 4.8 12.9 0.00 0.46 0.03 70 1002.8
20260902135404 17 246 4.8 12.9 0.00 0.46 0.03 70 1002.7
20260902134503 17 286 6.4 17.7 0.00 0.46 0.03 70 1002.8
20260902133603 17 265 4.8 17.7 0.00 0.46 0.03 69 1002.9
20260902132703 17 218 4.8 17.7 0.00 0.46 0.03 72 1002.8
20260902131803 17 293 6.4 14.5 0.00 0.46 0.03 71 1002.8
20260902130903 17 296 8.0 19.3 0.00 0.46 0.03 72 1002.9
20260902130003 16 290 6.4 12.9 0.00 0.46 0.03 73 1002.9
20260902125403 16 291 8.0 17.7 0.00 0.46 0.03 73 1002.9
20260902124504 17 282 8.0 17.7 0.00 0.46 0.03 72 1003.0
20260902123603 17 236 4.8 12.9 0.00 0.46 0.03 71 1003.0
20260902122703 17 277 6.4 17.7 0.00 0.46 0.03 73 1003.0